User: anonymous   Login
Location: Iesi
(43.5167°N, 13.2333°E)
Time: 07:15:53
(UTC+00:00)
Language:

Cosmos 2251 Rocket - Orbit

View from above orbital plane
View from above orbital plane
View from above satellite
View from above satellite

Ground track
Ground track

The orbit data is extracted from the following two-line orbital elements,

1 22676U 93036B   20295.95563265 -.00000091  00000-0 -23319-4 0  9997
2 22676  74.0394 105.3997 0019040 196.0303 164.0249 14.34016368430618
Epoch (UTC): 21 October 2020 22:56:06
Eccentricity: 0.0019040
inclination: 74.0394°
perigee height: 765 km
apogee height: 792 km
right ascension of ascending node: 105.3997°
argument of perigee: 196.0303°
revolutions per day: 14.34016368
mean anomaly at epoch: 164.0249°
orbit number at epoch: 43061

The dashed part of the orbit path shows where the satellite is in the earth's shadow,  

DLR